Tracking 25612 objects as of 19-May-2022
HD Live streaming from Space Station
objects crossing your sky now

COSMOS 1375 DEB

Track COSMOS 1375 DEB now!
10-day predictions


NORAD ID: 18477
Int'l Code: 1982-055BF
Perigee: 820.0 km
Apogee: 841.3 km
Inclination: 65.8 °
Period: 101.4 minutes
Semi major axis: 7201 km
RCS: 0.0083 m2 (small)
Launch date: June 6, 1982
Source: Commonwealth of Independent States (former USSR) (CIS)
Launch site: PLESETSK MISSILE AND SPACE COMPLEX (PKMTR)

Note: This is SATELLITE DEBRIS
aabbcc
Your satellite tracking list
Your tracking list is empty




NASA's NSSDC Master Catalog

Two Line Element Set (TLE):
1 18477U 82055BF  22138.87045164  .00004881  00000-0  23054-2 0  9995
2 18477  65.8265 304.3457 0014776  46.5589 313.6723 14.20548629864711
Source of the keplerian elements: AFSPC